Weather History for EGTE - May, 2013

Change the Weather History Date:

Thursday, May 23, 2013

  Actual Average Record
Temperature  
Mean Temperature 48 °F -  
Max Temperature 54 °F 63 °F 73 °F (2012)
Min Temperature 41 °F 49 °F 41 °F (2013)
Degree Days  
Heating Degree Days 18    
Moisture  
Dew Point 37 °F    
Average Humidity 64    
Maximum Humidity 87    
Minimum Humidity 38    
Precipitation  
Precipitation 0.00 in - - ()
Sea Level Pressure  
Sea Level Pressure 30.03 in    
Wind  
Wind Speed 15 mph ()    
Max Wind Speed 28 mph    
Max Gust Speed 40 mph    
Visibility 6.2 miles    
Events Rain    
Averages and records for this station are not official NWS values.
T = Trace of Precipitation, MM = Missing Value Source: Averaged Metar Reports

Daily Weather History Graph

Daily Weather History Graph

Search for Another Location

Airport or City:

Trip Planner

Search our weather history database for the weather conditions in past years. The results will help you decide how hot, cold, wet, or windy it might be!

Date:

Astronomy

May. 23, 2013 Rise Set
Actual Time 5:14 AM BST 9:07 PM BST
Civil Twilight 4:32 AM BST 9:49 PM BST
Nautical Twilight 3:33 AM BST 10:48 PM BST
Astronomical Twilight 1:55 AM BST 12:31 AM BST
Moon 7:13 PM BST (5/23) 4:02 AM BST (5/23)
Length of Visible Light 17h 17m
Length of Day
15h 52m
Waxing Gibbous, 96% of the Moon is Illuminated
May 23
Waxing Gibbous
May 25
Full
May 31
Last Quarter
Jun 8
New
Jun 16
First Quarter

Hourly Weather History & Observations

Time (BST) Temp. Windchill Dew Point Humidity Pressure Visibility Wind Dir Wind Speed Gust Speed Precip Events Conditions
12:20 AM 44.6 °F 38.8 °F 39.2 °F 81% 30.12 in - NNW 11.5 mph - N/A   Clear
12:50 AM 44 °F - 40 °F 81%  in - Calm Calm - -  
12:50 AM 44.6 °F 38.8 °F 41.0 °F 87% 30.09 in - NW 11.5 mph - N/A   Clear
1:20 AM 44.6 °F 40.2 °F 41.0 °F 87% 30.09 in - NW 8.1 mph - N/A   Clear
3:50 AM 42 °F - 39 °F 87%  in - Calm Calm - -  
5:20 AM 44.6 °F 39.2 °F 39.2 °F 81% 30.06 in 6.2 mi NW 10.4 mph - N/A   Partly Cloudy
6:20 AM 44.6 °F 39.2 °F 37.4 °F 76% 30.06 in 6.2 mi NNW 10.4 mph - N/A   Partly Cloudy
6:50 AM 46 °F - 38 °F 64%  in - Calm Calm - -  
6:50 AM 44.6 °F 37.8 °F 37.4 °F 76% 30.06 in 6.2 mi NW 15.0 mph - N/A   Partly Cloudy
7:20 AM 46.4 °F 40.1 °F 39.2 °F 76% 30.04 in 6.2 mi NW 15.0 mph - N/A   Partly Cloudy
7:50 AM 48.2 °F - 37.4 °F 66% 30.06 in 6.2 mi NNW 20.7 mph - N/A   Partly Cloudy
8:20 AM 48.2 °F - 35.6 °F 62% 30.04 in 6.2 mi NNW 21.9 mph - N/A   Partly Cloudy
8:50 AM 48.2 °F - 37.4 °F 66% 30.04 in 6.2 mi NNW 23.0 mph - N/A   Partly Cloudy
9:20 AM 50.0 °F - 35.6 °F 58% 30.04 in 6.2 mi NNW 19.6 mph 31.1 mph N/A   Partly Cloudy
9:50 AM 51 °F - 36 °F 46%  in - Calm Calm - -  
9:50 AM 50.0 °F - 35.6 °F 58% 30.04 in 6.2 mi NNW 25.3 mph - N/A   Scattered Clouds
10:20 AM 50.0 °F - 37.4 °F 62% 30.04 in 6.2 mi NNW 20.7 mph - N/A   Scattered Clouds
10:50 AM 50.0 °F - 35.6 °F 58% 30.04 in 6.2 mi NNW 20.7 mph - N/A Rain Light Rain Showers
11:20 AM 50.0 °F - 37.4 °F 62% 30.04 in 6.2 mi NNW 19.6 mph 31.1 mph N/A   Scattered Clouds
11:50 AM 50.0 °F - 37.4 °F 62% 30.04 in 6.2 mi NW 18.4 mph - N/A Rain Light Rain Showers
12:20 PM 50.0 °F - 39.2 °F 66% 30.04 in 6.2 mi NNW 15.0 mph - N/A   Scattered Clouds
12:50 PM 51 °F - 38 °F 49%  in - Calm Calm - -  
12:50 PM 51.8 °F - 35.6 °F 54% 30.01 in 6.2 mi NW 21.9 mph - N/A   Scattered Clouds
1:20 PM 46.4 °F 39.0 °F 41.0 °F 81% 30.04 in 6.2 mi NNW 19.6 mph 36.8 mph N/A   Partly Cloudy
1:50 PM 50.0 °F - 41.0 °F 71% 30.01 in 6.2 mi NW 19.6 mph 35.7 mph N/A   Partly Cloudy
2:20 PM 53.6 °F - 37.4 °F 54% 30.01 in 6.2 mi NW 26.5 mph - N/A   Partly Cloudy
2:50 PM 51.8 °F - 37.4 °F 58% 30.01 in 6.2 mi NNW 25.3 mph - N/A   Scattered Clouds
3:20 PM 51.8 °F - 35.6 °F 54% 30.01 in 6.2 mi NW 26.5 mph 38.0 mph N/A   Partly Cloudy
3:50 PM 53 °F - 35 °F 38%  in - Calm Calm - -  
3:50 PM 53.6 °F - 35.6 °F 51% 30.01 in 6.2 mi NNW 26.5 mph 40.3 mph N/A   Partly Cloudy
4:20 PM 53.6 °F - 35.6 °F 51% 30.01 in 6.2 mi NNW 25.3 mph - N/A   Scattered Clouds
4:50 PM 51.8 °F - 35.6 °F 54% 30.01 in 6.2 mi NW 23.0 mph - N/A   Scattered Clouds
5:20 PM 53.6 °F - 33.8 °F 47% 30.01 in 6.2 mi NNW 27.6 mph - N/A   Mostly Cloudy
5:50 PM 46.4 °F 39.0 °F 39.2 °F 76% 30.01 in 6.2 mi NNW 19.6 mph - N/A   Scattered Clouds
6:20 PM 50.0 °F - 41.0 °F 71% 30.01 in 6.2 mi NNW 13.8 mph - N/A   Scattered Clouds
6:50 PM 50 °F - 34 °F 43%  in - Calm Calm - -  
6:50 PM 50.0 °F - 37.4 °F 62% 30.01 in 6.2 mi NW 21.9 mph - N/A   Scattered Clouds
7:20 PM 50.0 °F - 33.8 °F 54% 30.01 in 6.2 mi NNW 20.7 mph - N/A   Scattered Clouds
7:50 PM 48.2 °F - 33.8 °F 58% 30.01 in 6.2 mi NNW 19.6 mph - N/A   Scattered Clouds
8:20 PM 48.2 °F - 33.8 °F 58% 30.01 in 6.2 mi NNW 19.6 mph 31.1 mph N/A   Partly Cloudy
8:50 PM 46.4 °F 39.5 °F 32.0 °F 57% 30.01 in 6.2 mi NNW 17.3 mph 28.8 mph N/A   Partly Cloudy
9:20 PM 44.6 °F 39.2 °F 33.8 °F 66% 30.01 in 6.2 mi NW 10.4 mph - N/A   Partly Cloudy
9:50 PM 44 °F - 34 °F 57%  in - Calm Calm - -  
9:50 PM 44.6 °F 38.8 °F 33.8 °F 66% 30.01 in 6.2 mi NW 11.5 mph - N/A   Partly Cloudy
10:20 PM 42.8 °F 37.5 °F 33.8 °F 70% 30.01 in 6.2 mi NW 9.2 mph - N/A   Partly Cloudy
10:50 PM 42.8 °F 37.5 °F 33.8 °F 70% 30.01 in 6.2 mi NW 9.2 mph - N/A   Partly Cloudy
11:20 PM 42.8 °F 36.2 °F 33.8 °F 70% 30.01 in - NW 12.7 mph - N/A   Clear
11:50 PM 42.8 °F 38.6 °F 33.8 °F 70% 30.01 in - NW 6.9 mph - N/A   Clear